Weather History for KAGC - December, 2012

Change the Weather History Date:

Thursday, December 20, 2012

  Actual Average Record
Temperature  
Mean Temperature 41 °F -  
Max Temperature 46 °F 47 °F 61 °F (1988)
Min Temperature 36 °F 25 °F 1 °F (2004)
Degree Days  
Heating Degree Days 24    
Moisture  
Dew Point 37 °F    
Average Humidity 84    
Maximum Humidity 93    
Minimum Humidity 58    
Precipitation  
Precipitation 0.80 in - - ()
Sea Level Pressure  
Sea Level Pressure 29.70 in    
Wind  
Wind Speed 11 mph (SE)    
Max Wind Speed 21 mph    
Max Gust Speed 30 mph    
Visibility 7 miles    
Events Rain    
Averages and records for this station are not official NWS values.
T = Trace of Precipitation, MM = Missing Value Source: NWS Daily Summary

Daily Weather History Graph

Daily Weather History Graph

Search for Another Location

Airport or City:

Trip Planner

Search our weather history database for the weather conditions in past years. The results will help you decide how hot, cold, wet, or windy it might be!

Date:

Astronomy

Dec. 20, 2012 Rise Set
Actual Time 7:38 AM EST 4:56 PM EST
Civil Twilight 7:08 AM EST 5:27 PM EST
Nautical Twilight 6:33 AM EST 6:01 PM EST
Astronomical Twilight 6:00 AM EST 6:34 PM EST
Moon 12:14 PM EST (12/20) 12:23 AM EST (12/20)
Length of Visible Light 10h 19m
Length of Day
9h 17m
First Quarter, 55% of the Moon is Illuminated
Dec 20
First Quarter
Dec 28
Full
Jan 4
Last Quarter
Jan 11
New
Jan 18
First Quarter

Hourly Weather History & Observations

Time (EST) Temp. Windchill Dew Point Humidity Pressure Visibility Wind Dir Wind Speed Gust Speed Precip Events Conditions
12:53 AM 36.0 °F 32.1 °F 34.0 °F 93% 30.15 in 6.0 mi ESE 4.6 mph - N/A   Clear
1:53 AM 36.0 °F 29.6 °F 34.0 °F 93% 30.14 in 7.0 mi East 8.1 mph - N/A   Clear
2:53 AM 36.0 °F 30.3 °F 33.1 °F 89% 30.12 in 7.0 mi East 6.9 mph - N/A   Clear
3:53 AM 37.0 °F 31.0 °F 33.1 °F 86% 30.10 in 9.0 mi East 8.1 mph - N/A   Clear
4:53 AM 37.0 °F 31.0 °F 33.1 °F 86% 30.06 in 10.0 mi ESE 8.1 mph - N/A   Clear
5:53 AM 37.0 °F 29.8 °F 32.0 °F 82% 30.02 in 10.0 mi East 10.4 mph - N/A   Clear
6:53 AM 37.0 °F 29.8 °F 32.0 °F 82% 29.99 in 10.0 mi ESE 10.4 mph - N/A   Clear
7:53 AM 37.9 °F 30.9 °F 32.0 °F 79% 29.94 in 10.0 mi ESE 10.4 mph - N/A   Clear
8:53 AM 39.9 °F 33.9 °F 32.0 °F 73% 29.90 in 10.0 mi ESE 9.2 mph - N/A   Clear
9:53 AM 43.0 °F 36.0 °F 32.0 °F 65% 29.86 in 10.0 mi SE 13.8 mph - N/A   Clear
10:53 AM 45.0 °F 38.2 °F 32.0 °F 60% 29.83 in 10.0 mi SE 15.0 mph - N/A   Clear
11:53 AM 46.0 °F 39.3 °F 32.0 °F 58% 29.80 in 10.0 mi SSE 16.1 mph 26.5 mph N/A   Partly Cloudy
12:53 PM 44.1 °F 37.1 °F 34.0 °F 68% 29.77 in 9.0 mi SSE 15.0 mph 28.8 mph 0.00 in Rain Light Rain
1:53 PM 42.1 °F 34.2 °F 36.0 °F 79% 29.73 in 7.0 mi SE 16.1 mph 21.9 mph 0.05 in Rain Light Rain
2:53 PM 41.0 °F 33.9 °F 37.9 °F 89% 29.64 in 3.0 mi ESE 12.7 mph - 0.11 in Rain Light Rain
3:04 PM 41.0 °F 34.3 °F 39.2 °F 93% 29.60 in 2.5 mi ESE 11.5 mph - 0.00 in Rain Light Rain
3:53 PM 42.1 °F 34.9 °F 39.9 °F 92% 29.60 in 2.5 mi SE 13.8 mph 20.7 mph 0.10 in Rain Light Rain
4:43 PM 42.8 °F 36.6 °F 41.0 °F 93% 29.55 in 3.0 mi SE 11.5 mph 25.3 mph 0.13 in Rain Rain
4:53 PM 43.0 °F 35.1 °F 41.0 °F 93% 29.57 in 3.0 mi SE 17.3 mph 24.2 mph 0.14 in Rain Light Rain
5:07 PM 42.8 °F 35.4 °F 39.2 °F 87% 29.53 in 3.0 mi SE 15.0 mph 20.7 mph 0.02 in Rain Light Rain
5:53 PM 43.0 °F 34.5 °F 39.9 °F 89% 29.53 in 3.0 mi SE 19.6 mph 26.5 mph 0.07 in Rain Light Rain
6:53 PM 44.1 °F 37.7 °F 39.9 °F 85% 29.48 in 10.0 mi SE 12.7 mph 29.9 mph 0.03 in Rain Light Rain
7:53 PM 45.0 °F 37.6 °F 39.9 °F 82% 29.47 in 10.0 mi SSE 17.3 mph - 0.00 in Rain Light Rain
8:53 PM 45.0 °F 37.9 °F 41.0 °F 86% 29.44 in 8.0 mi SSE 16.1 mph 21.9 mph 0.01 in Rain Light Rain
9:30 PM 44.6 °F 38.1 °F 42.8 °F 93% 29.40 in 5.0 mi SSE 13.8 mph 24.2 mph 0.04 in Rain Light Rain
9:53 PM 44.1 °F 36.5 °F 42.1 °F 93% 29.40 in 6.0 mi SSE 17.3 mph 28.8 mph 0.06 in Rain Light Rain
10:02 PM 44.6 °F 36.9 °F 42.8 °F 93% 29.37 in 5.0 mi SSE 18.4 mph 28.8 mph 0.01 in Rain Light Rain
10:49 PM 42.8 °F 34.0 °F 41.0 °F 93% 29.36 in 4.0 mi SSE 20.7 mph 27.6 mph 0.12 in Rain Light Rain
10:53 PM 43.0 °F 36.0 °F 41.0 °F 93% 29.39 in 4.0 mi South 13.8 mph 27.6 mph 0.13 in Rain Light Rain
11:32 PM 42.8 °F 34.8 °F 37.4 °F 81% 29.39 in 8.0 mi WSW 17.3 mph 26.5 mph 0.08 in Rain Light Rain
11:53 PM 42.1 °F 34.2 °F 37.0 °F 82% 29.42 in 10.0 mi WSW 16.1 mph 24.2 mph 0.10 in Rain Light Rain